| time (UTC) | temp F | wind direction | speed MPH | gust MPH | rain 1hr in | rain 24hr in | rain mn in | humidity % | barometer mb |
| 20260506191553 | 39 | 271 | 0.0 | 4.0 | 0.05 | 1.51 | 0.87 | 99 | 1011.1 |
| 20260506190051 | 39 | 40 | 1.0 | 5.0 | 0.04 | 1.49 | 0.85 | 99 | 1011.3 |
| 20260506184551 | 40 | 49 | 2.0 | 4.0 | 0.03 | 1.53 | 0.84 | 98 | 1011.3 |
| 20260506183049 | 40 | 65 | 0.0 | 3.0 | 0.04 | 1.52 | 0.83 | 99 | 1011.4 |
| 20260506181548 | 40 | 39 | 1.0 | 4.0 | 0.06 | 1.51 | 0.82 | 99 | 1011.3 |
| 20260506180047 | 40 | 19 | 0.0 | 3.0 | 0.07 | 1.50 | 0.81 | 99 | 1011.5 |
| 20260506174555 | 40 | 336 | 0.0 | 1.0 | 0.08 | 1.50 | 0.81 | 99 | 1011.6 |
| 20260506173050 | 39 | 300 | 0.0 | 4.0 | 0.08 | 1.48 | 0.79 | 99 | 1011.8 |
| 20260506171544 | 39 | 260 | 0.0 | 3.0 | 0.08 | 1.45 | 0.76 | 99 | 1011.9 |
| 20260506170046 | 39 | 35 | 1.0 | 6.0 | 0.09 | 1.43 | 0.74 | 99 | 1011.6 |
| 20260506164544 | 39 | 76 | 0.0 | 6.0 | 0.12 | 1.42 | 0.73 | 99 | 1011.7 |
| 20260506163048 | 39 | 352 | 0.0 | 5.0 | 0.14 | 1.40 | 0.71 | 98 | 1011.8 |
| 20260506161541 | 39 | 34 | 1.0 | 4.0 | 0.14 | 1.37 | 0.68 | 98 | 1012.0 |
| 20260506160040 | 40 | 124 | 0.0 | 7.0 | 0.13 | 1.34 | 0.65 | 98 | 1012.0 |
| 20260506154540 | 40 | 41 | 0.0 | 5.0 | 0.11 | 1.30 | 0.61 | 98 | 1012.3 |
| 20260506153042 | 40 | 111 | 1.0 | 4.0 | 0.09 | 1.26 | 0.56 | 98 | 1012.0 |
| 20260506151534 | 40 | 131 | 0.0 | 5.0 | 0.07 | 1.23 | 0.54 | 98 | 1011.9 |
| 20260506150040 | 40 | 21 | 0.0 | 3.0 | 0.07 | 1.21 | 0.52 | 98 | 1011.6 |
| 20260506144552 | 41 | 73 | 1.0 | 3.0 | 0.06 | 1.19 | 0.50 | 98 | 1011.7 |
| 20260506143036 | 41 | 25 | 0.0 | 2.0 | 0.06 | 1.17 | 0.48 | 98 | 1011.7 |
| 20260506141533 | 41 | 309 | 0.0 | 5.0 | 0.06 | 1.15 | 0.47 | 98 | 1011.9 |
| 20260506140043 | 41 | 49 | 0.0 | 2.0 | 0.05 | 1.13 | 0.45 | 98 | 1012.0 |
| 20260506134534 | 41 | 44 | 1.0 | 4.0 | 0.06 | 1.12 | 0.44 | 98 | 1011.7 |
| 20260506133029 | 41 | 326 | 1.0 | 6.0 | 0.08 | 1.11 | 0.42 | 97 | 1011.8 |
| 20260506131535 | 41 | 314 | 0.0 | 3.0 | 0.09 | 1.10 | 0.41 | 97 | 1011.8 |
| 20260506130029 | 41 | 49 | 1.0 | 7.0 | 0.11 | 1.09 | 0.40 | 97 | 1012.3 |
| 20260506124526 | 41 | 99 | 1.0 | 15.0 | 0.10 | 1.07 | 0.38 | 97 | 1011.9 |
| 20260506123035 | 41 | 87 | 3.0 | 6.0 | 0.07 | 1.03 | 0.34 | 97 | 1011.8 |
| 20260506121522 | 41 | 290 | 0.0 | 7.0 | 0.06 | 1.01 | 0.32 | 97 | 1012.7 |
| 20260506120025 | 43 | 337 | 1.0 | 5.0 | 0.04 | 0.98 | 0.28 | 97 | 1012.6 |
| 20260506114520 | 43 | 153 | 0.0 | 2.0 | 0.03 | 0.97 | 0.28 | 97 | 1012.7 |
| 20260506113017 | 43 | 269 | 0.0 | 4.0 | 0.03 | 0.96 | 0.27 | 96 | 1012.9 |
| 20260506111515 | 43 | 260 | 0.0 | 3.0 | 0.02 | 0.95 | 0.26 | 96 | 1012.5 |
| 20260506110014 | 43 | 227 | 0.0 | 3.0 | 0.01 | 0.94 | 0.25 | 96 | 1012.2 |
| 20260506104524 | 44 | 276 | 0.0 | 2.0 | 0.01 | 0.94 | 0.25 | 96 | 1012.2 |
| 20260506103012 | 44 | 252 | 1.0 | 3.0 | 0.03 | 0.93 | 0.24 | 97 | 1012.1 |
| 20260506101508 | 44 | 123 | 0.0 | 2.0 | 0.03 | 0.93 | 0.24 | 97 | 1012.0 |
| 20260506100016 | 44 | 24 | 1.0 | 5.0 | 0.03 | 0.93 | 0.24 | 97 | 1012.5 |
| 20260506094507 | 45 | 200 | 2.0 | 10.0 | 0.02 | 0.92 | 0.23 | 98 | 1013.5 |
| 20260506093003 | 45 | 334 | 1.0 | 10.0 | 0.00 | 0.90 | 0.21 | 97 | 1012.6 |
| 20260506091502 | 46 | 212 | 2.0 | 0.0 | 0.00 | 0.00 | 0.21 | 98 | 1013.1 |
| 20260506090059 | 46 | 326 | 1.0 | 6.0 | 0.04 | 0.90 | 0.21 | 98 | 1012.5 |
| 20260506084600 | 47 | 257 | 0.0 | 7.0 | 0.09 | 0.90 | 0.21 | 98 | 1012.5 |
| 20260506083058 | 47 | 116 | 0.0 | 5.0 | 0.09 | 0.90 | 0.21 | 98 | 1012.8 |
| 20260506081605 | 47 | 210 | 0.0 | 4.0 | 0.05 | 0.86 | 0.17 | 98 | 1012.6 |
| 20260506073045 | 49 | 49 | 1.0 | 6.0 | 0.01 | 0.81 | 0.12 | 98 | 1012.6 |
| 20260506071544 | 49 | 116 | 0.0 | 4.0 | 0.01 | 0.81 | 0.12 | 98 | 1012.2 |
| 20260506061636 | 50 | 34 | 0.0 | 1.0 | 0.01 | 0.80 | 0.11 | 99 | 1012.3 |
| 20260506044519 | 50 | 83 | 0.0 | 1.0 | 0.08 | 0.75 | 0.06 | 98 | 1012.4 |
| 20260506043018 | 50 | 83 | 0.0 | 1.0 | 0.18 | 0.75 | 0.06 | 97 | 1012.4 |
| 20260506041519 | 50 | 83 | 0.0 | 3.0 | 0.17 | 0.74 | 0.05 | 97 | 1012.4 |
| 20260506040014 | 50 | 96 | 0.0 | 0.0 | 0.16 | 0.69 | 0.00 | 96 | 1013.0 |
| 20260506034513 | 50 | 96 | 0.0 | 2.0 | 0.18 | 0.67 | 0.67 | 96 | 1012.8 |
| 20260506033008 | 51 | 92 | 1.0 | 3.0 | 0.13 | 0.56 | 0.56 | 94 | 1012.4 |
| 20260506031504 | 52 | 219 | 0.0 | 4.0 | 0.14 | 0.56 | 0.56 | 92 | 1012.2 |
| 20260506030059 | 54 | 169 | 3.0 | 10.0 | 0.10 | 0.53 | 0.53 | 92 | 1012.5 |
| 20260506024559 | 55 | 318 | 1.0 | 3.0 | 0.06 | 0.49 | 0.49 | 94 | 1011.6 |
| 20260506023004 | 57 | 249 | 1.0 | 4.0 | 0.01 | 0.44 | 0.44 | 90 | 1011.7 |
| 20260506021556 | 57 | 197 | 1.0 | 4.0 | 0.00 | 0.43 | 0.43 | 87 | 1011.4 |
| 20260506020057 | 58 | 311 | 0.0 | 4.0 | 0.00 | 0.43 | 0.43 | 86 | 1011.5 |
| 20260506014556 | 58 | 248 | 0.0 | 9.0 | 0.00 | 0.43 | 0.43 | 86 | 1011.6 |
| 20260506013107 | 57 | 216 | 2.0 | 6.0 | 0.00 | 0.43 | 0.43 | 87 | 1011.2 |
| 20260506011558 | 56 | 223 | 0.0 | 2.0 | 0.00 | 0.43 | 0.43 | 92 | 1010.4 |
| 20260506010110 | 55 | 223 | 0.0 | 3.0 | 0.00 | 0.43 | 0.43 | 92 | 1010.6 |
| 20260506004554 | 56 | 221 | 0.0 | 3.0 | 0.00 | 0.43 | 0.43 | 91 | 1010.3 |
| 20260506003049 | 56 | 236 | 1.0 | 3.0 | 0.00 | 0.43 | 0.43 | 92 | 1010.3 |
| 20260506001555 | 57 | 238 | 0.0 | 2.0 | 0.00 | 0.43 | 0.43 | 90 | 1010.1 |
| 20260506000051 | 56 | 37 | 0.0 | 4.0 | 0.00 | 0.43 | 0.43 | 92 | 1009.9 |
| 20260505234548 | 56 | 232 | 0.0 | 1.0 | 0.00 | 0.43 | 0.43 | 93 | 1009.9 |
| 20260505233057 | 56 | 231 | 1.0 | 3.0 | 0.00 | 0.43 | 0.43 | 93 | 1010.0 |
| 20260505231546 | 57 | 84 | 0.0 | 3.0 | 0.00 | 0.43 | 0.43 | 90 | 1009.7 |
| 20260505230053 | 58 | 293 | 0.0 | 5.0 | 0.01 | 0.43 | 0.43 | 89 | 1009.5 |
| 20260505224545 | 58 | 193 | 0.0 | 4.0 | 0.01 | 0.43 | 0.43 | 89 | 1009.3 |
| 20260505223046 | 58 | 129 | 1.0 | 7.0 | 0.01 | 0.43 | 0.43 | 88 | 1009.1 |
| 20260505221544 | 57 | 214 | 4.0 | 14.0 | 0.01 | 0.43 | 0.43 | 89 | 1009.6 |
| 20260505220048 | 57 | 226 | 0.0 | 5.0 | 0.01 | 0.42 | 0.42 | 91 | 1009.3 |
| 20260505214540 | 57 | 140 | 0.0 | 6.0 | 0.04 | 0.42 | 0.42 | 91 | 1009.2 |
| 20260505213039 | 57 | 199 | 1.0 | 6.0 | 0.11 | 0.42 | 0.42 | 93 | 1009.2 |
| 20260505211537 | 57 | 129 | 0.0 | 5.0 | 0.19 | 0.42 | 0.42 | 93 | 1009.3 |
| 20260505210036 | 57 | 150 | 3.0 | 11.0 | 0.18 | 0.41 | 0.41 | 92 | 1009.0 |
| 20260505204535 | 57 | 138 | 2.0 | 6.0 | 0.15 | 0.38 | 0.38 | 89 | 1008.7 |
| 20260505203037 | 59 | 289 | 2.0 | 12.0 | 0.07 | 0.28 | 0.28 | 86 | 1008.8 |
| 20260505201547 | 61 | 92 | 1.0 | 9.0 | 0.18 | 0.23 | 0.23 | 87 | 1007.7 |
| 20260505200034 | 61 | 196 | 1.0 | 7.0 | 0.18 | 0.23 | 0.23 | 85 | 1008.0 |
| 20260505194532 | 60 | 219 | 0.0 | 5.0 | 0.18 | 0.23 | 0.23 | 92 | 1008.2 |
| 20260505193030 | 61 | 153 | 0.0 | 4.0 | 0.22 | 0.22 | 0.22 | 88 | 1008.1 |